Regional Weather Roundup
Issued by NWS

Home | Current Version | Previous Version | Graphics & Text | Print | Product List | Glossary Off
Versions: 1 2 3 4 5 6 7 8 9 10 11 12 13 14 15 16 17 18 19 20 21 22 23 24 25 26 27 28 29 30 31 32 33 34 35 36 37 38 39 40 41 42 43 44 45 46 47 48 49 50

000
ASUS43 KMKX 211421
RWRWI

WISCONSIN REGIONAL WEATHER ROUNDUP
NATIONAL WEATHER SERVICE MILWAUKEE/SULLIVAN WI
800 AM CST TUE NOV 21 2017

NOTE: "FAIR" INDICATES FEW OR NO CLOUDS BELOW 12,000 FEET WITH NO
SIGNIFICANT WEATHER AND/OR OBSTRUCTIONS TO VISIBILITY.

WIZ001-002-006>008-014>016-023>028-211500-
NORTHWEST WISCONSIN

CITY           SKY/WX    TMP DP  RH WIND       PRES   REMARKS
SUPERIOR ARPT  FLURRIES  23  13  65 NW16G26   29.85R WCI   9
ASHLAND        CLOUDY    24  12  60 W18G29    29.74R WCI  10
HAYWARD        FLURRIES  22   9  57 NW13G28   29.77R WCI  10
SIREN          CLOUDY    22  10  58 NW20G25   29.86R WCI   7
CUMBERLAND     CLOUDY    23  10  58 NW21G28   29.79R WCI   8
RICE LAKE      CLOUDY    26  13  59 NW10G30   29.81R WCI  16
CHETEK         CLOUDY    26  14  60 NW13G20   29.78R WCI  15
LADYSMITH      CLOUDY    26  13  58 NW21G31   29.77R WCI  12
EAU CLAIRE     CLOUDY    27  11  51 NW22      29.80R WCI  13
MENOMONIE      CLOUDY    28  12  51 NW22G30   29.83R WCI  13
NEW RICHMOND   CLOUDY    25  10  54 NW23G30   29.86R WCI  10
OSCEOLA        CLOUDY    25  12  57 NW17G29   29.91R WCI  11
$$

WIZ003>005-009-010-017-018-211500-
NORTH CENTRAL WISCONSIN

CITY           SKY/WX    TMP DP  RH WIND       PRES   REMARKS
MANITOWISH WTR FLURRIES  23  15  71 W17G28    29.63R WCI   9
ARBOR VITAE    PTCLDY    27  16  64 NW15G23   29.62R WCI  15
WOODRUFF       PTCLDY    27  16  64 NW15G23   29.62R WCI  15
RHINELANDER    LGT SNOW  26  19  74 W17G25    29.63R WCI  13
EAGLE RIVER    FLURRIES  25  14  63 NW20G29   29.61R WCI  11
LAND O LAKES   FLURRIES  26  16  68 NW15G22   29.59R WCI  13
PHILLIPS       CLOUDY    24  13  63 W12G23    29.69R WCI  13
TOMAHAWK       FLURRIES  27  16  62 W18G26    29.65R WCI  14
MEDFORD        CLOUDY    26  15  62 W20G25    29.67R WCI  13
MERRILL        FLURRIES  29  18  65 NW13G24   29.66R WCI  18
$$

WIZ029-030-035-036-043>047-211500-
CENTRAL WISCONSIN

CITY           SKY/WX    TMP DP  RH WIND       PRES   REMARKS
WAUSAU         CLOUDY    30  20  66 NW20G29   29.63R WCI  17
MOSINEE        MOCLDY    30  18  59 W24G31    29.65R WCI  16
MARSHFIELD     CLOUDY    28  15  58 NW25G33   29.69R WCI  13
STEVENS POINT  MOCLDY    30  17  56 NW14G30   29.67R WCI  20
WAUPACA        PTCLDY    36  21  55 W14G28    29.66R WCI  27
WAUTOMA        CLEAR     34  18  52 NW17G25   29.68R WCI  23
WISC RAPIDS    CLEAR     30  16  56 NW18G31   29.71R WCI  18
CAMP DOUGLAS   MOCLDY    34  16  47 W17G28    29.74R WCI  23
$$

WIZ011>013-019>022-031-037>040-048>050-211500-
NORTHEAST WISCONSIN

CITY           SKY/WX    TMP DP  RH WIND       PRES   REMARKS
ANTIGO         CLOUDY    30  18  60 NW16G28   29.59R WCI  18
SHAWANO        PTCLDY    37  20  51 W12       29.62R WCI  29
OCONTO         CLEAR     36  20  52 W14G23    29.58R WCI  27
STURGEON BAY   CLEAR     38  23  55 W13       29.57R WCI  30
GREEN BAY      PTCLDY    37  25  61 W17G26    29.60R WCI  27
MANITOWOC      MOCLDY    39  23  52 W17G26    29.61R WCI  30
APPLETON       MOCLDY    36  19  51 W16G25    29.60R WCI  26
CLINTONVILLE   CLOUDY    36  19  51 W17       29.62R WCI  25
OSHKOSH        MOCLDY    37  19  48 NW15G31   29.63R WCI  28
$$

WIZ032>034-041-042-053>061-211500-
SOUTHWEST WISCONSIN

CITY           SKY/WX    TMP DP  RH WIND       PRES   REMARKS
LA CROSSE      CLOUDY    31  15  52 NW24G38   29.81R WCI  17
SPARTA         CLOUDY    30  15  54 NW22G37   29.80R WCI  16
VIROQUA        CLOUDY    29  20  69 NW13G22   29.78R WCI  19
BOSCOBEL       PTCLDY    35  13  40 W14G20    29.80R WCI  26
PRAIRIE DU CHI CLOUDY    33  15  48 W17G31    29.83R WCI  22
PLATTEVILLE    CLOUDY    35  17  48 W21G30    29.77R WCI  24
$$

WIZ056-057-062-063-064-067-068-211500-
SOUTH CENTRAL WISCONSIN

CITY           SKY/WX    TMP DP  RH WIND       PRES   REMARKS
REEDSBURG      MOCLDY    34  15  46 W16G24    29.72R WCI  23
BARABOO/DELLS  MOCLDY    35  13  41 W15       29.70R WCI  25
LONE ROCK      CLOUDY    37  14  38 NW23G30   29.75R WCI  26
MINERAL POINT  CLOUDY    36  14  41 W20G33    29.73R WCI  25
MADISON        CLOUDY    40  17  39 NW9       29.68R WCI  34
MIDDLETON      CLOUDY    40  15  34 NW15G21   29.69R WCI  32
WATERTOWN      CLOUDY    42  24  48 W10G22    29.66R
MONROE         CLOUDY    39  12  33 W18G35    29.71R WCI  30
JANESVILLE     CLOUDY    45  27  49 W10G17    29.69R
$$

WIZ051-052-058>065-066-070>072-211500-
SOUTHEAST WISCONSIN

CITY           SKY/WX    TMP DP  RH WIND       PRES   REMARKS
MILWAUKEE      CLOUDY    45  31  58 W10       29.64R
WAUKESHA       CLOUDY    43  27  52 SW12      29.64R
MILWAUKEE/TIMM CLOUDY    45  25  45 W15G22    29.63R
RACINE         CLOUDY    44  33  65 W10G21    29.67R
BURLINGTON     CLOUDY    45  36  70 SW9       29.68R
KENOSHA        CLOUDY    44  32  62 W16       29.67R
FOND DU LAC    CLOUDY    39  15  37 NW18G31   29.64R WCI  30
SHEBOYGAN      PTCLDY    41  18  39 W17G28    29.61R
WEST BEND      CLOUDY    41  21  45 W16G23    29.63R
JUNEAU         CLOUDY    39  20  45 W6        29.67R WCI  35
$$

LSZ147-162-211500-
LAKE SUPERIOR

STATION/POSITION TIME  TEMP    WIND        PRES    WAVE
                       AIR SEA DIR/SP/G            HT/PER
                 (UTC) (F)     (DEG/KT/KT) (MB)    (FT/S)
DEVILS ISLAND    1400   25     320/ 30/ 34 1007.8R
SAXON HARBOR     1330   28     290/ 17/ 26 1005.4R
$$

LMZ867-665-643>646-211500-
LAKE MICHIGAN

STATION/POSITION TIME  TEMP    WIND        PRES    WAVE
                       AIR SEA DIR/SP/G            HT/PER
                 (UTC) (F)     (DEG/KT/KT) (MB)    (FT/S)
N MID LAKE BUOY  1350   41 47  280/ 27/ 33  999.0R   8/ 8
NORTHPORT PIER   1340   40     290/ 11/ 23  999.7R
KEWAUNEE LAKESHO 1354   39     280/ 12/ 21 1001.0R
SHEBOYGAN LAKESH 1400   42     290/ 18/ 23 1003.1R
PORT WASHINGTON  1330   45     260/  6/ 13 1003.4R
MILWAUKEE LAKESH 1400   46     270/ 14/ 16   N/A
S MID LAKE BUOY  1350   46 48  260/ 23/ 27 1003.8R   6/ 7
KENOSHA   LAKESH 1400   44     250/ 15/ 22 1004.7
$$

TC  - TEMPERATURE IN CELSIUS
VSB - VISIBILITY IN STATUTE MILES
WCI - WIND CHILL INDEX
HX  - HEAT INDEX




USA.gov is the U.S. government's official web portal to all federal, state and local government web resources and services.